Skip Page Navigation
NASA JPL Caltech
NASA Logo - Jet Propulsion Laboratory + View the NASA Portal
+ Center for Near-Earth Object Studies
JPL Home Earth Solar System Stars & Galaxies Technology
JPL Solar System Dynamics
BODIES ORBITS EPHEMERIDES TOOLS PHYSICAL DATA DISCOVERY FAQ SITE MAP
JPL Small-Body Database Browser
Search: [ help ]  
442146 (2010 VH59)
Classification: Main-belt Asteroid          SPK-ID: 2442146
Ephemeris | Orbit Diagram | Orbital Elements | Mission Design | Physical Parameters | Discovery Circumstances | Close-Approach Data ]

[ hide orbit diagram ]

For accurate long-term ephemerides, please instead use our Horizons system.This orbit viewer was implemented using two-body methods, and hence should not be used for determining accurate long-term trajectories (over several years or decades) or planetary encounter circumstances.


[ revert to old Java-based viewer ]

Orbital Elements at Epoch 2459000.5 (2020-May-31.0) TDB
Reference: JPL 9 (heliocentric ecliptic J2000)
 Element Value Uncertainty (1-sigma)   Units 
e .04446587088251677 8.679e-08  
a 3.13688065748598 1.2255e-07 au
q 2.997396527196344 3.4501e-07 au
i 8.462594291827996 7.7095e-06 deg
node 313.6264088825131 5.9908e-05 deg
peri 111.8573899944512 0.00019094 deg
M 238.6904247113287 0.00019563 deg
tp 2459684.314023221409
(2022-Apr-14.81402322)
0.0011367 TDB
period 2029.296102751227
5.56
0.00011892
3.256e-07
d
yr
n .1774014149595658 1.0396e-08 deg/d
Q 3.276364787775615 1.28e-07 au
  Orbit Determination Parameters
   # obs. used (total)      89  
   data-arc span      3152 days (8.63 yr)  
   first obs. used      2010-11-04  
   last obs. used      2019-06-22  
   planetary ephem.      DE431  
   SB-pert. ephem.      SB431-N16  
   condition code      0  
   norm. resid. RMS      .62984  
   source      ORB  
   producer      Otto Matic  
   solution date      2019-Sep-24 07:42:49  

Additional Information
 Earth MOID = 2.02493 au 
 Jupiter MOID = 1.88149 au 
 T_jup = 3.193 
[ show covariance matrix ]

Ephemeris | Orbit Diagram | Orbital Elements | Mission Design | Physical Parameters | Discovery Circumstances | Close-Approach Data ]

Physical Parameter Table
Parameter Symbol Value Units Sigma Reference Notes
absolute magnitude H 16.0   n/a MPO437719  

442146 (2010 VH59)          Discovered 2010-Nov-04 by Mt. Lemmon Survey at Mount Lemmon
Reference: Last Updated: 2015-09-02

[ show close-approach data ]
Ephemeris | Orbit Diagram | Orbital Elements | Mission Design | Physical Parameters | Discovery Circumstances | Close-Approach Data ]
ABOUT SSD CREDITS/AWARDS PRIVACY/COPYRIGHT GLOSSARY LINKS
FirstGov 2020-Oct-21 21:38 UT
(server date/time)  
NASA Home Page
Site Manager:   Ryan S. Park
Webmaster  Alan B. Chamberlin